Weather History for KMLC - March, 2013

Change the Weather History Date:

Thursday, March 7, 2013

  Actual Average Record
Temperature  
Mean Temperature 50 °F -  
Max Temperature 64 °F 63 °F 84 °F (1992)
Min Temperature 37 °F 38 °F 11 °F (1989)
Degree Days  
Heating Degree Days 14    
Moisture  
Dew Point 25 °F    
Average Humidity 36    
Maximum Humidity 55    
Minimum Humidity 22    
Precipitation  
Precipitation 0.00 in - - ()
Sea Level Pressure  
Sea Level Pressure 30.18 in    
Wind  
Wind Speed 6 mph (SSE)    
Max Wind Speed 14 mph    
Max Gust Speed 25 mph    
Visibility 10 miles    
Events      
Averages and records for this station are not official NWS values.
T = Trace of Precipitation, MM = Missing Value Source: NWS Daily Summary

Daily Weather History Graph

Daily Weather History Graph

Search for Another Location

Airport or City:

Trip Planner

Search our weather history database for the weather conditions in past years. The results will help you decide how hot, cold, wet, or windy it might be!

Date:

Astronomy

Mar. 07, 2013 Rise Set
Actual Time 6:44 AM CST 6:24 PM CST
Civil Twilight 6:19 AM CST 6:49 PM CST
Nautical Twilight 5:49 AM CST 7:18 PM CST
Astronomical Twilight 5:20 AM CST 7:48 PM CST
Moon 3:36 AM CST (3/7) 2:21 PM CST (3/7)
Length of Visible Light 12h 30m
Length of Day
11h 40m
Waning Crescent, 20% of the Moon is Illuminated
Mar 7
Waning Crescent
Mar 11
New
Mar 19
First Quarter
Mar 27
Full
Apr 2
Last Quarter

Hourly Weather History & Observations

Time (CST) Temp. Windchill Dew Point Humidity Pressure Visibility Wind Dir Wind Speed Gust Speed Precip Events Conditions
12:53 AM 42.1 °F - 23.0 °F 47% 30.22 in 10.0 mi Calm Calm - N/A   Clear
1:53 AM 42.1 °F 38.4 °F 24.1 °F 49% 30.23 in 10.0 mi ESE 5.8 mph - N/A   Clear
2:53 AM 43.0 °F 41.3 °F 24.1 °F 47% 30.22 in 10.0 mi ESE 3.5 mph - N/A   Clear
3:53 AM 39.9 °F - 24.1 °F 53% 30.22 in 10.0 mi Calm Calm - N/A   Clear
4:53 AM 39.9 °F - 23.0 °F 51% 30.22 in 10.0 mi Calm Calm - N/A   Scattered Clouds
5:53 AM 39.0 °F 34.0 °F 23.0 °F 53% 30.22 in 10.0 mi ESE 6.9 mph - N/A   Clear
6:53 AM 37.9 °F 34.4 °F 23.0 °F 55% 30.23 in 10.0 mi ESE 4.6 mph - N/A   Partly Cloudy
7:53 AM 44.1 °F 40.8 °F 25.0 °F 47% 30.25 in 10.0 mi SSE 5.8 mph - N/A   Clear
8:53 AM 48.9 °F - 26.1 °F 41% 30.25 in 10.0 mi South 9.2 mph 19.6 mph N/A   Clear
9:53 AM 53.1 °F - 25.0 °F 34% 30.25 in 10.0 mi SSE 9.2 mph 18.4 mph N/A   Partly Cloudy
10:53 AM 57.0 °F - 24.1 °F 28% 30.24 in 10.0 mi SSE 13.8 mph 21.9 mph N/A   Partly Cloudy
11:53 AM 60.1 °F - 24.1 °F 25% 30.22 in 10.0 mi South 10.4 mph 23.0 mph N/A   Clear
12:53 PM 63.0 °F - 24.1 °F 23% 30.19 in 10.0 mi SSE 10.4 mph 20.7 mph N/A   Partly Cloudy
1:53 PM 64.0 °F - 24.1 °F 22% 30.16 in 10.0 mi South 13.8 mph 20.7 mph N/A   Partly Cloudy
2:53 PM 64.9 °F - 25.0 °F 22% 30.13 in 10.0 mi South 12.7 mph 25.3 mph N/A   Clear
3:53 PM 64.9 °F - 25.0 °F 22% 30.12 in 10.0 mi South 12.7 mph 21.9 mph N/A   Clear
4:53 PM 64.9 °F - 26.1 °F 23% 30.12 in 10.0 mi South 10.4 mph 19.6 mph N/A   Clear
5:53 PM 63.0 °F - 25.0 °F 24% 30.12 in 10.0 mi South 9.2 mph 17.3 mph N/A   Partly Cloudy
6:53 PM 60.1 °F - 26.1 °F 27% 30.13 in 10.0 mi SSE 6.9 mph - N/A   Partly Cloudy
7:53 PM 55.9 °F - 28.0 °F 34% 30.13 in 10.0 mi SE 4.6 mph - N/A   Mostly Cloudy
8:53 PM 55.0 °F - 28.0 °F 35% 30.14 in 10.0 mi SE 5.8 mph - N/A   Scattered Clouds
9:53 PM 55.0 °F - 28.0 °F 35% 30.14 in 10.0 mi SE 9.2 mph - N/A   Partly Cloudy
10:53 PM 55.0 °F - 28.0 °F 35% 30.14 in 10.0 mi SSE 9.2 mph 16.1 mph N/A   Mostly Cloudy
11:53 PM 55.0 °F - 27.0 °F 34% 30.14 in 10.0 mi SSE 6.9 mph - N/A   Scattered Clouds